Location: Eastlake (historical)
(39.0077°N, 122.6678°W)
Time: 18:39:11
(UTC+00:00)

PATHFINDER 1 - Visible Passes

Search period start: 22 June 2021 00:00
Search period end: 02 July 2021 00:00
Orbit: 660 x 702 km, 98.0° (Epoch: 22 June)

Date Brightness Start Highest point End Pass type
(mag) Time Alt. Az. Time Alt. Az. Time Alt. Az.
22 Jun ? 05:00:00 10° S 05:04:38 53° W 05:09:18 10° NNW visible
23 Jun ? 05:37:11 10° SW 05:40:53 22° W 05:44:36 10° NW visible
24 Jun ? 04:34:41 10° SSE 04:39:27 84° ENE 04:44:14 10° N visible
25 Jun ? 05:11:07 10° SSW 05:15:34 40° W 05:20:04 10° NNW visible
26 Jun ? 04:09:50 10° SE 04:14:21 46° ENE 04:18:55 10° N visible
26 Jun ? 05:48:47 10° SW 05:51:54 17° W 05:55:01 10° NW visible
27 Jun ? 04:45:37 10° S 04:50:22 75° WSW 04:55:09 10° NNW visible
28 Jun ? 05:22:22 10° SSW 05:26:34 31° W 05:30:46 10° NW visible
29 Jun ? 04:20:35 10° SSE 04:25:16 60° ENE 04:29:57 10° N visible
29 Jun ? 06:00:46 10° WSW 06:02:57 13° W 06:05:08 10° WNW visible
30 Jun ? 04:56:40 10° S 05:01:20 56° W 05:06:01 10° NNW visible
01 Jul ? 05:33:47 10° SSW 05:37:36 24° W 05:41:24 10° NW visible
